Satellite: NOAA-11 Catalog number: 19531 Epoch time: 13206.49527987 Element set: 446 Inclination: 098.7095 deg RA of node: 288.6236 deg Eccentricity: 0.0012092 Arg of perigee: 148.4836 deg Mean anomaly: 282.3274 deg Mean motion: 14.15022825 rev/day Decay rate: 2.4e-07 rev/day^2 Epoch rev: 28154 Checksum: 314
Satellite: NOAA-12 Catalog number: 21263 Epoch time: 13205.45931738 Element set: 911 Inclination: 098.6959 deg RA of node: 230.5474 deg Eccentricity: 0.0015040 Arg of perigee: 111.2293 deg Mean anomaly: 353.3997 deg Mean motion: 14.25578031 rev/day Decay rate: 1.1e-07 rev/day^2 Epoch rev: 15386 Checksum: 290
Satellite: MET-3/5 Catalog number: 21655 Epoch time: 13206.15772630 Element set: 744 Inclination: 082.5534 deg RA of node: 227.4650 deg Eccentricity: 0.0013868 Arg of perigee: 040.2096 deg Mean anomaly: 320.0049 deg Mean motion: 13.17044766 rev/day Decay rate: 3.58e-06 rev/day^2 Epoch rev: 5493 Checksum: 289
Satellite: MET-2/21 Catalog number: 22782 Epoch time: 13206.73197713 Element set: 799 Inclination: 082.5470 deg RA of node: 072.3410 deg Eccentricity: 0.0023720 Arg of perigee: 101.5900 deg Mean anomaly: 301.1377 deg Mean motion: 13.83709461 rev/day Decay rate: 1.0e-08 rev/day^2 Epoch rev: 497 Checksum: 271
Satellite: OKEAN-4 Catalog number: 23317 Epoch time: 13206.83085100 Element set: 278 Inclination: 082.5393 deg RA of node: 013.6181 deg Eccentricity: 0.0022644 Arg of perigee: 099.2507 deg Mean anomaly: 037.0525 deg Mean motion: 14.84552988 rev/day Decay rate: 6.66e-06 rev/day^2 Epoch rev: 1467 Checksum: 296
Satellite: NOAA-14 Catalog number: 23455 Epoch time: 13205.44961571 Element set: 391 Inclination: 098.8017 deg RA of node: 289.3235 deg Eccentricity: 0.0008594 Arg of perigee: 248.0889 deg Mean anomaly: 240.9950 deg Mean motion: 14.13913812 rev/day Decay rate: 6.9e-07 rev/day^2 Epoch rev: 95763 Checksum: 333
Satellite: NOAA-15 Catalog number: 25338 Epoch time: 13206.81806499 Element set: 815 Inclination: 098.7262 deg RA of node: 196.8139 deg Eccentricity: 0.0011062 Arg of perigee: 020.8614 deg Mean anomaly: 339.3487 deg Mean motion: 14.25246831 rev/day Decay rate: 1.76e-06 rev/day^2 Epoch rev: 79035 Checksum: 321
Satellite: RESURS Catalog number: 25394 Epoch time: 13206.71223804 Element set: 429 Inclination: 098.3651 deg RA of node: 180.7107 deg Eccentricity: 0.0002534 Arg of perigee: 120.7543 deg Mean anomaly: 282.9376 deg Mean motion: 14.24333325 rev/day Decay rate: -1.6e-07 rev/day^2 Epoch rev: 78184 Checksum: 282
Satellite: FENGYUN1 Catalog number: 25730 Epoch time: 13204.91610196 Element set: 923 Inclination: 098.8792 deg RA of node: 163.9796 deg Eccentricity: 0.0024167 Arg of perigee: 308.1491 deg Mean anomaly: 084.9497 deg Mean motion: 14.10581294 rev/day Decay rate: 3.82e-06 rev/day^2 Epoch rev: 73122 Checksum: 318
Satellite: OKEAN-0 Catalog number: 25860 Epoch time: 13204.49075358 Element set: 1 Inclination: 097.9933 deg RA of node: 166.4603 deg Eccentricity: 0.0001826 Arg of perigee: 082.2263 deg Mean anomaly: 021.2289 deg Mean motion: 14.74649231 rev/day Decay rate: 2.90e-06 rev/day^2 Epoch rev: 75370 Checksum: 287
Satellite: NOAA-16 Catalog number: 26536 Epoch time: 13206.77900434 Element set: 299 Inclination: 099.0398 deg RA of node: 259.9170 deg Eccentricity: 0.0010943 Arg of perigee: 030.9922 deg Mean anomaly: 329.2370 deg Mean motion: 14.12898619 rev/day Decay rate: 9.6e-07 rev/day^2 Epoch rev: 66202 Checksum: 325
Satellite: NOAA-17 Catalog number: 27453 Epoch time: 13206.82620017 Element set: 211 Inclination: 098.3124 deg RA of node: 218.8549 deg Eccentricity: 0.0012646 Arg of perigee: 055.2237 deg Mean anomaly: 305.0603 deg Mean motion: 14.24606328 rev/day Decay rate: 1.19e-06 rev/day^2 Epoch rev: 57622 Checksum: 274
Satellite: NOAA-18 Catalog number: 28654 Epoch time: 13206.83001862 Element set: 698 Inclination: 099.1015 deg RA of node: 175.6038 deg Eccentricity: 0.0015130 Arg of perigee: 099.3339 deg Mean anomaly: 261.0017 deg Mean motion: 14.11841565 rev/day Decay rate: 7.7e-07 rev/day^2 Epoch rev: 42151 Checksum: 289
Satellite: NOAA-19 Catalog number: 33591 Epoch time: 13206.78687054 Element set: 879 Inclination: 098.9038 deg RA of node: 148.5451 deg Eccentricity: 0.0013667 Arg of perigee: 324.6474 deg Mean anomaly: 035.4273 deg Mean motion: 14.11530114 rev/day Decay rate: 2.33e-06 rev/day^2 Epoch rev: 22994 Checksum: 319
/EX SB KEPS @ AMSAT $ORB13206.M Orbital Elements 13206.MISC
HR AMSAT ORBITAL ELEMENTS FOR MANNED AND MISCELLANEOUS SATELLITES FROM WA5QGD FORT WORTH,TX July 25, 2013 BID: ORB13206.M TO ALL RADIO AMATEURS BT
Satellite: HUBBLE Catalog number: 20580 Epoch time: 13205.83872610 Element set: 288 Inclination: 028.4712 deg RA of node: 025.9736 deg Eccentricity: 0.0003380 Arg of perigee: 032.7838 deg Mean anomaly: 105.8581 deg Mean motion: 15.03787402 rev/day Decay rate: 1.342e-05 rev/day^2 Epoch rev: 7537 Checksum: 285
Satellite: ISS Catalog number: 25544 Epoch time: 13206.80459653 Element set: 259 Inclination: 051.6506 deg RA of node: 276.9831 deg Eccentricity: 0.0004200 Arg of perigee: 223.2207 deg Mean anomaly: 236.6555 deg Mean motion: 15.50032004 rev/day Decay rate: 5.545e-05 rev/day^2 Epoch rev: 84069 Checksum: 277
Satellite: CO-58 Catalog number: 28895 Epoch time: 13205.60875635 Element set: 530 Inclination: 097.8663 deg RA of node: 059.0980 deg Eccentricity: 0.0016568 Arg of perigee: 327.6525 deg Mean anomaly: 032.3660 deg Mean motion: 14.61174330 rev/day Decay rate: 3.10e-06 rev/day^2 Epoch rev: 41240 Checksum: 305
Satellite: FALCON Catalog number: 30776 Epoch time: 13205.82059041 Element set: 659 Inclination: 035.4316 deg RA of node: 331.1798 deg Eccentricity: 0.0001965 Arg of perigee: 272.4062 deg Mean anomaly: 221.6101 deg Mean motion: 15.11004388 rev/day Decay rate: 3.374e-05 rev/day^2 Epoch rev: 35111 Checksum: 261
Satellite: MAST Catalog number: 31126 Epoch time: 13205.01088626 Element set: 809 Inclination: 097.8836 deg RA of node: 198.8356 deg Eccentricity: 0.0091704 Arg of perigee: 298.1897 deg Mean anomaly: 094.1622 deg Mean motion: 14.54627829 rev/day Decay rate: 2.61e-06 rev/day^2 Epoch rev: 33267 Checksum: 329
Satellite: CAPE1 Catalog number: 31130 Epoch time: 13206.45815078 Element set: 813 Inclination: 097.9009 deg RA of node: 196.5693 deg Eccentricity: 0.0099153 Arg of perigee: 309.7196 deg Mean anomaly: 049.5292 deg Mean motion: 14.53561833 rev/day Decay rate: 4.31e-06 rev/day^2 Epoch rev: 33233 Checksum: 307
Satellite: COMPASS Catalog number: 32787 Epoch time: 13206.79846488 Element set: 684 Inclination: 097.7497 deg RA of node: 264.3594 deg Eccentricity: 0.0015376 Arg of perigee: 171.8780 deg Mean anomaly: 188.2688 deg Mean motion: 14.85673401 rev/day Decay rate: 1.512e-05 rev/day^2 Epoch rev: 28369 Checksum: 366
Satellite: AAUSAT2 Catalog number: 32788 Epoch time: 13206.39092904 Element set: 668 Inclination: 097.7505 deg RA of node: 264.6227 deg Eccentricity: 0.0014905 Arg of perigee: 172.3205 deg Mean anomaly: 187.8242 deg Mean motion: 14.86147981 rev/day Decay rate: 1.698e-05 rev/day^2 Epoch rev: 28367 Checksum: 338
Satellite: DO-64 Catalog number: 32789 Epoch time: 13206.77316177 Element set: 698 Inclination: 097.7655 deg RA of node: 269.0006 deg Eccentricity: 0.0014479 Arg of perigee: 163.7189 deg Mean anomaly: 339.4664 deg Mean motion: 14.88892941 rev/day Decay rate: 2.939e-05 rev/day^2 Epoch rev: 28386 Checksum: 383
Satellite: CO-66 Catalog number: 32791 Epoch time: 13206.26023353 Element set: 662 Inclination: 097.7498 deg RA of node: 263.1482 deg Eccentricity: 0.0015750 Arg of perigee: 174.8600 deg Mean anomaly: 259.7223 deg Mean motion: 14.84778384 rev/day Decay rate: 1.188e-05 rev/day^2 Epoch rev: 28352 Checksum: 329
Satellite: RS-30 Catalog number: 32953 Epoch time: 13206.53368353 Element set: 60 Inclination: 082.4986 deg RA of node: 044.3426 deg Eccentricity: 0.0018967 Arg of perigee: 146.2143 deg Mean anomaly: 214.0154 deg Mean motion: 12.43035405 rev/day Decay rate: 1.0e-07 rev/day^2 Epoch rev: 23467 Checksum: 269
Satellite: METEOR-M Catalog number: 35865 Epoch time: 13206.71761209 Element set: 653 Inclination: 098.5993 deg RA of node: 258.1898 deg Eccentricity: 0.0002314 Arg of perigee: 345.4519 deg Mean anomaly: 014.6583 deg Mean motion: 14.21890270 rev/day Decay rate: -1.3e-07 rev/day^2 Epoch rev: 19994 Checksum: 320
Satellite: RS-38 Catalog number: 35869 Epoch time: 13206.74424680 Element set: 609 Inclination: 098.5928 deg RA of node: 258.1194 deg Eccentricity: 0.0004517 Arg of perigee: 334.8292 deg Mean anomaly: 025.2656 deg Mean motion: 14.22137879 rev/day Decay rate: 1.7e-07 rev/day^2 Epoch rev: 19997 Checksum: 347
Satellite: JUGNU Catalog number: 37839 Epoch time: 13206.04901468 Element set: 427 Inclination: 019.9624 deg RA of node: 077.3685 deg Eccentricity: 0.0018894 Arg of perigee: 340.5357 deg Mean anomaly: 170.4219 deg Mean motion: 14.12168484 rev/day Decay rate: 3.39e-06 rev/day^2 Epoch rev: 9225 Checksum: 316
Satellite: SRMSAT Catalog number: 37841 Epoch time: 13205.09591744 Element set: 429 Inclination: 019.9728 deg RA of node: 095.9300 deg Eccentricity: 0.0011904 Arg of perigee: 282.2916 deg Mean anomaly: 219.5799 deg Mean motion: 14.10236602 rev/day Decay rate: 3.32e-06 rev/day^2 Epoch rev: 9199 Checksum: 307
Satellite: RAX-2 Catalog number: 37853 Epoch time: 13205.65550796 Element set: 549 Inclination: 101.7070 deg RA of node: 076.6643 deg Eccentricity: 0.0233799 Arg of perigee: 280.0585 deg Mean anomaly: 111.5042 deg Mean motion: 14.83956058 rev/day Decay rate: 2.092e-05 rev/day^2 Epoch rev: 9400 Checksum: 307
Satellite: AUBIESAT Catalog number: 37854 Epoch time: 13206.15040865 Element set: 542 Inclination: 101.7105 deg RA of node: 078.3361 deg Eccentricity: 0.0233543 Arg of perigee: 277.1383 deg Mean anomaly: 206.9175 deg Mean motion: 14.84708020 rev/day Decay rate: 2.111e-05 rev/day^2 Epoch rev: 9409 Checksum: 272
